Terug naar catalogus

STARLINK-32182

ActiefCommunicatieVLEO
NORAD 60319·PAYLOAD·🇺🇸 United States

Gelanceerd Jul 28, 2024 vanaf Vandenberg Space Force Base

Loading…

Volgende Passages (komende 24 uur)

TLE

VersSource: CelesTrak SupGP

Epoch: Sep 14, 2026, 13:48 UTC

1 60319C 24133U   26257.57548611  .00063095  00000+0  18645-2 0  2576
2 60319  53.1568 137.2611 0001176 106.8873 274.2469 15.34354005    13

Volg STARLINK-32182 in realtime met AllMySat

Download on the App Store